FW7772 Weather Reports


Display with metric or nautical units.
time (UTC)temp
F
wind
direction
speed
MPH
gust
MPH
rain 1hr
in
rain 24hr
in
rain mn
in
humidity
%
barometer
mb
20260902041744 43 310 0.0 0.0 0.00 0.00 0.00 92 1006.1
20260902040744 43 310 0.0 0.0 0.00 0.00 0.00 91 1006.1
20260902035743 43 270 0.0 0.0 0.00 0.00 0.00 91 1006.2
20260902034743 43 270 0.0 2.0 0.00 0.00 0.00 90 1006.3
20260902033742 43 340 0.0 0.0 0.00 0.00 0.00 90 1006.3
20260902032743 44 340 0.0 0.0 0.00 0.00 0.00 90 1006.2
20260902031740 44 340 0.0 0.0 0.00 0.00 0.00 91 1006.2
20260902030740 44 340 1.0 3.0 0.00 0.00 0.00 91 1006.1
20260902025741 44 340 1.0 3.0 0.00 0.00 0.00 90 1006.2
20260902024741 45 340 1.0 2.0 0.00 0.00 0.00 91 1006.2
20260902023741 45 340 0.0 2.0 0.00 0.00 0.00 90 1006.2
20260902022740 45 340 0.0 1.0 0.00 0.00 0.00 91 1006.2
20260902021740 45 340 0.0 2.0 0.00 0.00 0.00 91 1006.3
20260902020740 46 340 1.0 3.0 0.00 0.00 0.00 91 1006.5
20260902020210 46 340 1.0 3.0 0.00 0.00 0.00 91 1006.5
20260902014738 46 340 1.0 3.0 0.00 0.00 0.00 91 1006.4
20260902013742 46 340 1.0 2.0 0.00 0.00 0.00 91 1006.5
20260902012733 46 340 2.0 3.0 0.00 0.00 0.00 91 1006.5
20260902011732 47 340 1.0 3.0 0.00 0.00 0.00 91 1006.5
20260902010732 47 340 0.0 0.0 0.00 0.00 0.00 91 1006.6
20260902005734 47 340 0.0 1.0 0.00 0.00 0.00 90 1006.7
20260902004732 48 340 1.0 1.0 0.00 0.00 0.00 91 1006.8
20260902003734 48 340 0.0 2.0 0.00 0.00 0.00 91 1006.8
20260902002732 48 340 1.0 2.0 0.00 0.00 0.00 91 1006.8
20260902001732 48 340 0.0 1.0 0.00 0.00 0.00 91 1007.0
20260902001210 49 340 1.0 2.0 0.00 0.00 0.00 91 1007.0
20260901235731 49 340 1.0 3.0 0.00 0.00 0.00 91 1007.0
20260901234732 49 340 1.0 4.0 0.00 0.00 0.00 91 1007.0
20260901233730 49 322 0.0 0.0 0.00 0.00 0.00 91 1007.1
20260901232732 49 322 0.0 2.0 0.00 0.00 0.00 91 1007.0
20260901231731 49 322 0.0 2.0 0.00 0.00 0.00 91 1007.1
20260901231214 49 322 2.0 4.0 0.00 0.00 0.00 91 1007.1
20260901225731 49 310 1.0 3.0 0.00 0.00 0.00 91 1007.2
20260901224730 49 310 1.0 2.0 0.00 0.00 0.00 91 1007.3
20260901223733 49 310 1.0 3.0 0.00 0.00 0.00 90 1007.1
20260901222731 49 310 2.0 3.0 0.00 0.00 0.00 90 1007.3
20260901221732 49 310 1.0 3.0 0.00 0.00 0.00 89 1007.4
20260901220731 49 310 0.0 2.0 0.00 0.00 0.00 89 1007.4
20260901215731 50 310 1.0 3.0 0.00 0.00 0.00 89 1007.4
20260901214731 50 310 2.0 3.0 0.00 0.00 0.00 90 1007.4
20260901213730 50 310 2.0 3.0 0.00 0.00 0.00 89 1007.4
20260901212731 50 310 1.0 3.0 0.00 0.00 0.00 89 1007.4
20260901211729 50 310 2.0 3.0 0.00 0.00 0.00 89 1007.4
20260901210730 51 310 2.0 3.0 0.00 0.00 0.00 88 1007.3
20260901205731 51 314 2.0 3.0 0.00 0.00 0.00 88 1007.5
20260901205213 51 337 1.0 3.0 0.00 0.00 0.00 88 1007.4
20260901203730 51 337 1.0 3.0 0.00 0.00 0.00 87 1007.6
20260901202730 52 337 1.0 2.0 0.00 0.00 0.00 87 1007.5
20260901202210 52 337 1.0 2.0 0.00 0.00 0.00 87 1007.5
20260901200730 53 337 1.0 2.0 0.00 0.00 0.00 87 1007.6
20260901195731 53 337 1.0 2.0 0.00 0.00 0.00 86 1007.6
20260901194724 53 337 1.0 2.0 0.00 0.00 0.00 86 1007.7
20260901193724 54 337 1.0 2.0 0.00 0.00 0.00 86 1007.7
20260901192725 54 337 2.0 3.0 0.00 0.00 0.00 86 1007.6
20260901191727 55 337 1.0 2.0 0.00 0.00 0.00 86 1007.6
20260901190724 55 337 1.0 2.0 0.00 0.00 0.00 85 1007.6
20260901185724 56 337 1.0 3.0 0.00 0.00 0.00 84 1007.7
20260901184724 56 337 1.0 3.0 0.00 0.00 0.00 84 1007.6
20260901183722 57 337 1.0 2.0 0.00 0.00 0.00 84 1007.7
20260901182723 58 337 1.0 2.0 0.00 0.00 0.00 84 1007.7
20260901181721 58 337 0.0 2.0 0.00 0.00 0.00 84 1007.7
20260901180722 58 337 1.0 2.0 0.00 0.00 0.00 84 1007.7
20260901175721 59 337 1.0 2.0 0.00 0.00 0.00 84 1007.6
20260901175158 59 337 0.0 2.0 0.00 0.00 0.00 85 1007.5
20260901173721 59 337 0.0 0.0 0.00 0.00 0.00 86 1007.5
20260901172721 59 337 0.0 1.0 0.00 0.00 0.00 85 1007.5
20260901171722 60 337 2.0 2.0 0.00 0.00 0.00 83 1007.6
20260901170722 60 337 0.0 2.0 0.00 0.00 0.00 82 1007.5
20260901165717 60 337 1.0 4.0 0.00 0.00 0.00 81 1007.6
20260901164716 61 327 1.0 3.0 0.00 0.01 0.00 81 1007.6
20260901163714 61 92 1.0 3.0 0.00 0.01 0.00 78 1007.6
20260901162713 62 92 1.0 3.0 0.00 0.01 0.00 76 1007.7
20260901161711 63 92 1.0 2.0 0.00 0.01 0.00 71 1007.6
20260901160709 64 91 2.0 4.0 0.00 0.01 0.00 72 1007.6
20260901155704 65 104 2.0 4.0 0.00 0.01 0.00 69 1007.6
20260901154844 64 133 1.0 3.0 0.00 0.01 0.00 68 1007.6
20260901152708 66 150 3.0 7.0 0.00 0.01 0.00 62 1007.8
20260901151705 66 108 3.0 5.0 0.00 0.01 0.00 64 1007.7
20260901150703 65 118 2.0 4.0 0.00 0.01 0.00 68 1007.8
20260901145703 67 160 3.0 5.0 0.00 0.01 0.00 60 1007.9
20260901144702 69 159 3.0 7.0 0.00 0.01 0.00 58 1008.0
20260901143706 69 156 2.0 4.0 0.00 0.01 0.00 60 1008.0
20260901142703 67 150 1.0 4.0 0.00 0.01 0.00 64 1007.9
20260901141705 67 6 1.0 2.0 0.00 0.01 0.00 62 1007.9
20260901141144 66 75 2.0 4.0 0.00 0.01 0.00 66 1008.0
20260901135704 67 114 4.0 7.0 0.00 0.01 0.00 63 1008.0
20260901134702 69 112 5.0 10.0 0.00 0.01 0.00 58 1008.1
20260901134141 70 113 4.0 10.0 0.00 0.01 0.00 60 1008.1
20260901132703 71 85 5.0 9.0 0.00 0.01 0.00 55 1008.1
20260901131704 71 68 5.0 13.0 0.00 0.01 0.00 55 1008.1
20260901130706 69 345 5.0 11.0 0.00 0.01 0.00 58 1008.1
20260901125703 69 149 4.0 8.0 0.00 0.01 0.00 57 1008.1
20260901124708 71 139 3.0 9.0 0.00 0.01 0.00 52 1008.2
20260901123703 69 116 5.0 10.0 0.00 0.01 0.00 61 1008.1
20260901122703 70 116 5.0 11.0 0.00 0.01 0.00 58 1008.1
20260901121702 68 96 4.0 9.0 0.00 0.01 0.00 62 1008.2
20260901121144 67 137 4.0 7.0 0.00 0.01 0.00 61 1008.2
20260901115703 67 91 3.0 7.0 0.00 0.01 0.00 58 1008.3
20260901114702 68 54 3.0 7.0 0.00 0.01 0.00 56 1008.3
20260901113702 68 130 4.0 9.0 0.00 0.01 0.00 54 1008.3
20260901112701 68 187 4.0 9.0 0.00 0.01 0.00 54 1008.2
20260901112144 67 244 3.0 11.0 0.00 0.01 0.00 55 1008.4
20260901110702 68 170 2.0 5.0 0.00 0.01 0.00 53 1008.3
20260901105702 67 244 3.0 8.0 0.00 0.01 0.00 56 1008.4
20260901104702 66 204 3.0 8.0 0.00 0.01 0.00 53 1008.3
20260901103702 65 244 2.0 6.0 0.00 0.01 0.00 50 1008.3
20260901102704 65 217 3.0 8.0 0.00 0.01 0.00 50 1008.4
20260901101704 66 181 3.0 5.0 0.00 0.01 0.00 52 1008.4
20260901100705 64 339 3.0 7.0 0.00 0.01 0.00 55 1008.4
20260901095703 64 240 1.0 4.0 0.00 0.01 0.00 56 1008.4
20260901094703 63 288 3.0 8.0 0.00 0.01 0.00 60 1008.4
20260901093703 63 214 2.0 5.0 0.00 0.01 0.00 53 1008.4
20260901093624 63 113 2.0 5.0 0.00 0.01 0.00 58 1008.4
20260901091702 61 229 1.0 4.0 0.00 0.01 0.00 57 1008.5
20260901090702 61 220 2.0 5.0 0.00 0.01 0.00 61 1008.5
20260901085702 61 252 2.0 4.0 0.00 0.01 0.00 61 1008.6
20260901084702 60 212 3.0 5.0 0.00 0.01 0.00 61 1008.6
20260901083703 59 125 1.0 4.0 0.00 0.01 0.00 66 1008.6
20260901083634 59 209 2.0 4.0 0.00 0.01 0.00 65 1008.6
20260901081703 57 19 1.0 4.0 0.00 0.01 0.00 70 1008.6
20260901080703 58 155 1.0 3.0 0.00 0.01 0.00 75 1008.6
20260901075705 56 264 1.0 4.0 0.00 0.01 0.00 73 1008.7
20260901074703 55 243 1.0 3.0 0.00 0.01 0.00 76 1008.7
20260901073706 54 357 0.0 2.0 0.00 0.01 0.00 76 1008.8
20260901073138 53 357 0.0 2.0 0.00 0.01 0.00 80 1008.8
20260901071705 52 357 1.0 2.0 0.00 0.01 0.00 79 1008.7
20260901070703 51 11 1.0 2.0 0.00 0.01 0.00 82 1008.7
20260901065704 50 11 1.0 3.0 0.00 0.01 0.00 83 1008.7
20260901064703 49 11 2.0 5.0 0.00 0.01 0.00 84 1008.7
20260901063700 48 336 3.0 5.0 0.00 0.01 0.00 84 1008.5
20260901062701 47 291 3.0 5.0 0.00 0.01 0.00 86 1008.5
20260901061701 47 305 4.0 8.0 0.00 0.01 0.00 88 1008.6
20260901060700 46 295 5.0 9.0 0.00 0.01 0.00 89 1008.6
20260901055700 46 310 6.0 10.0 0.00 0.01 0.00 91 1008.5
20260901054700 44 300 5.0 9.0 0.00 0.01 0.00 92 1008.4
20260901053701 43 305 6.0 10.0 0.00 0.01 0.00 92 1008.4
20260901052702 43 300 6.0 9.0 0.00 0.01 0.00 92 1008.4
20260901051700 42 315 4.0 8.0 0.00 0.01 0.00 92 1008.6
20260901050658 42 317 5.0 10.0 0.00 0.01 0.00 92 1008.5
20260901050149 42 300 3.0 6.0 0.00 0.01 0.00 91 1008.4
20260901044658 42 310 2.0 5.0 0.00 0.01 0.00 91 1008.4
20260901043659 43 310 4.0 6.0 0.00 0.01 0.00 91 1008.3
20260901042657 43 343 4.0 7.0 0.00 0.01 0.00 91 1008.3